Regional Weather Roundup
Issued by NWS

Home | Current Version | Previous Version | Graphics & Text | Print | Product List | Glossary On
Versions: 1 2 3 4 5 6 7 8 9 10 11 12 13 14 15 16 17 18 19 20 21 22 23 24 25 26 27
000
ASUS45 KBOU 240207
RWRCO

WEATHER ROUNDUP FOR COLORADO
NATIONAL WEATHER SERVICE DENVER/BOULDER CO
800 PM MDT MON OCT 23 2017

NOTE: "FAIR" INDICATES FEW OR NO CLOUDS BELOW 12000 FEET WITH NO
SIGNIFICANT WEATHER AND/OR OBSTRUCTIONS TO VISIBILITY.

COZ001>005-013-030-031-240300-
...NORTHWEST COLORADO...

CITY           SKY/WX    TMP DP  RH WIND       PRES   REMARKS
CRAIG          FAIR      41  23  48 W6        30.56
HAYDEN         NOT AVBL
MEEKER         FAIR      47  24  40 N9        30.55
RABBIT EARS PA NOT AVBL
STEAMBOAT SPGS NOT AVBL
WALDEN         NOT AVBL
$$

COZ006>008-011-240300-
...WEST CENTRAL VALLEYS...

CITY           SKY/WX    TMP DP  RH WIND       PRES   REMARKS
GRAND JUNCTION NOT AVBL
MONTROSE       FAIR      58  29  33 MISG      30.50
EAGLE          NOT AVBL
RIFLE          FAIR      56  24  29 NW6       30.50
DELTA          NOT AVBL
NUCLA          NOT AVBL
$$

COZ017>023-064>068-240300-
...SOUTHWEST COLORADO...

CITY           SKY/WX    TMP DP  RH WIND       PRES   REMARKS
DURANGO        FAIR      54  27  35 NW5       30.39
CORTEZ         FAIR      60  26  27 NW12      30.44
PAGOSA SPRINGS NOT AVBL
TELLURIDE      NOT AVBL
WOLF CREEK PAS NOT AVBL
$$

COZ009-010-012-014-032>034-037-058>063-240300-
...CENTRAL COLORADO...

CITY           SKY/WX    TMP DP  RH WIND       PRES   REMARKS
ASPEN          NOT AVBL
BUENA VISTA    NOT AVBL
COPPER MTN     NOT AVBL
BERTHOUD PASS  NOT AVBL
COTTONWOOD PAS NOT AVBL
GUNNISON       NOT AVBL
KREMMLING      NOT AVBL
LEADVILLE      FAIR      36  15  42 N9        30.59
SALIDA         NOT AVBL
SUNLIGHT       NOT AVBL
WILKERSON PASS NOT AVBL
$$

COZ069>075-240300-
...SAN LUIS VALLEY/SANGRE DE CRISTO MOUNTAINS...

CITY           SKY/WX    TMP DP  RH WIND       PRES   REMARKS
ALAMOSA        NOT AVBL
DEL NORTE      NOT AVBL
LA VETA PASS   NOT AVBL
SAGUACHE       NOT AVBL
$$

COZ035-036-038>040-240300-
...NORTHERN COLORADO FRONT RANGE...

CITY           SKY/WX    TMP DP  RH WIND       PRES   REMARKS
DENVER INTL AP FAIR      40  22  48 SE8       30.49
DMNS CITY PARK   N/A     44  31  60 E9        30.51R
AURORA         PTCLDY    38  24  56 S7        30.50R
FRONT RANGE AP PTCLDY    41  25  52 CALM      30.50R
ERIE MUNI ARPT NOT AVBL
BOULDER MUN AP NOT AVBL
CENTENNIAL     NOT AVBL
BROOMFIELD     PTCLDY   N/A N/A N/A SW5       30.49
FORT COLLINS   NOT AVBL
LONGMONT       NOT AVBL
$$

COZ041-046-047-076>085-087-088-240300-
...PIKES PEAK/PALMER DIVIDE AND SOUTHERN FOOTHILLS...

CITY           SKY/WX    TMP DP  RH WIND       PRES   REMARKS
COLO. SPRINGS  NOT AVBL
A. F. ACADEMY  FAIR      36  24  60 N5        30.51R
SCHRIEVER AFB  FAIR      40  21  46 NE6       30.51
CHEYENNE MTN   FAIR      41  22  46 CALM      30.46
ELLICOTT         N/A    N/A N/A N/A NE12      30.50R
FALCON         NOT AVBL
FORT CARSON    MOCLDY    44  23  43 NW6       30.49
LIMON          NOT AVBL
MONUMENT HILL  NOT AVBL
CANON CITY     CLEAR     48  32  53 CALM      30.49R
WALSENBURG     FAIR      37  30  75 W3        30.52R
TRINIDAD       NOT AVBL
$$

COZ042>045-048>051-090-091-240300-
...NORTHEAST COLORADO...

CITY           SKY/WX    TMP DP  RH WIND       PRES   REMARKS
GREELEY ARPT   NOT AVBL
AKRON          NOT AVBL
BURLINGTON     NOT AVBL
WRAY           NOT AVBL
YUMA           NOT AVBL
STERLING       NOT AVBL
HOLYOKE        NOT AVBL
FORT MORGAN    NOT AVBL
$$

COZ086-089-092>099-240300-
...SOUTHEAST COLORADO...

CITY           SKY/WX    TMP DP  RH WIND       PRES   REMARKS
PUEBLO         FAIR      47  27  45 NE3       30.48
LA JUNTA       NOT AVBL
LAMAR          NOT AVBL
SPRINGFIELD    NOT AVBL
$$




USA.gov is the U.S. government's official web portal to all federal, state and local government web resources and services.